{"data":{"norad_id":37192,"intl_designator":"2010-054E","name":"GLOBALSTAR M075","alt_names":[],"object_type":"PAYLOAD","status":"ACTIVE","operator":null,"country":"GLOB","launch_date":"2010-10-19","launch_site_code":"TYMSC","launch_vehicle":null,"mission":null,"orbit_class":"UNKNOWN","rcs_meters":4.7436,"size_class":null,"mass_kg":null,"dimensions":null,"purposes":["comms"],"wikipedia_slug":null,"has_3d_model":false,"image_url":null,"decayed_at":null,"tle_current":{"epoch":"2026-05-25T05:30:05.998176Z","epoch_age_seconds":55296,"freshness":"FRESH","line1":"1 37192U 10054E   26145.22923609 -.00000099  00000+0  25739-4 0  9991","line2":"2 37192  51.9936 220.0954 0000409 144.0901 233.4493 12.62266993719046","mean_motion":12.62266993,"eccentricity":4.09e-5,"inclination_deg":51.9936,"raan_deg":220.0954,"arg_perigee_deg":144.0901,"mean_anomaly_deg":233.4493,"bstar":2.5739e-5,"rev_number":71904,"period_min":114.08046063041,"perigee_km":1413.2826141654,"apogee_km":1413.919978358,"semimajor_km":7791.7382962617,"source":"CELESTRAK","updated_at":"2026-05-25T13:38:23.041068Z"}}}